Huvudsida
METAR-TAF:

METAR-TAF

Flygplatser :

Oljeplattform

Statfjord B, Norge

latitud: 61-12-22N, longitud: 1-49-45E, höjd: 10 m

Aktuellt väderrapport

Denna rapport gjordes för 37 minuter sedan, klockan 13:50 UTC
Vind 37 kt från väst/sydväst
Temperatur 5°C
Fuktighet 75%
Tryck 976 hPa
Sikt 10 km eller mer

METAR: ENFB 221350Z AUTO 25037KT 9999NDV FEW024/// SCT140/// 05/01 Q0976 W///S6

Tid: 15:27 (14:27 UTC)


TAF: saknas

Aktuella väderrapporter och prognoser från 4000 flygplatser (METAR- och TAF-rapporter).

De tillgängliga stationerna syns som gula och röda prickar på kartan.

För musen över prickarna för att se namnen på stationerna.

Klicka sedan för att få väderrapporter och prognoser.

För att ändra kartan: Klicka på de gröna knapparna med ett svart kors på för att zooma in; den gröna knappen med ett streck på för att zooma ut; eller på de gröna pilarna för angränsande kartor.


METAR-TAF: